timestamp,wind_dir_avg,wind_spd_avg,wind_spd_max_dir,wind_spd_gust,battery_voltage,lat,long
2021-10-10 00:04:00+00:00,352.0,8.85,358.0,9.85,12.65,47.59359,-54.27349
2021-10-10 00:14:01+00:00,348.0,10.43,346.0,13.8,12.57,47.59359,-54.27349
2021-10-10 00:24:01+00:00,2.0,15.26,4.0,17.89,12.57,47.59359,-54.27349
2021-10-10 00:34:01+00:00,356.0,11.41,358.0,14.16,12.57,47.59359,-54.27349
2021-10-10 00:44:01+00:00,352.0,9.18,331.0,10.57,12.57,47.59359,-54.27349
2021-10-10 00:54:01+00:00,352.0,11.61,358.0,13.14,12.57,47.59359,-54.27349
2021-10-10 01:04:01+00:00,349.0,12.85,345.0,17.4,12.57,47.59359,-54.27349
2021-10-10 01:14:01+00:00,353.0,12.75,352.0,15.27,12.57,47.59359,-54.27349
2021-10-10 01:24:01+00:00,347.0,10.68,341.0,13.59,12.57,47.59359,-54.27349
2021-10-10 01:34:01+00:00,355.0,11.75,353.0,13.67,12.57,47.59359,-54.27349
2021-10-10 01:44:01+00:00,354.0,11.26,357.0,13.44,12.57,47.59359,-54.27349
2021-10-10 01:54:01+00:00,1.0,11.55,3.0,12.97,12.57,47.59359,-54.27349
2021-10-10 02:04:01+00:00,354.0,12.06,358.0,13.69,12.57,47.59359,-54.27349
2021-10-10 02:14:00+00:00,356.0,11.13,345.0,13.05,12.57,47.59359,-54.27349
2021-10-10 02:24:00+00:00,4.0,10.34,355.0,12.06,12.57,47.59359,-54.27349
2021-10-10 02:34:00+00:00,4.0,10.86,359.0,13.08,12.57,47.59359,-54.27349
2021-10-10 02:44:00+00:00,348.0,9.19,335.0,11.4,12.57,47.59359,-54.27349
2021-10-10 02:54:00+00:00,353.0,11.72,347.0,13.34,12.57,47.59359,-54.27349
2021-10-10 03:04:00+00:00,359.0,7.76,1.0,9.1,12.57,47.59359,-54.27349
2021-10-10 03:14:01+00:00,357.0,10.49,358.0,12.38,12.57,47.59359,-54.27349
2021-10-10 03:24:01+00:00,354.0,10.76,353.0,13.64,12.57,47.59359,-54.27349
2021-10-10 03:34:01+00:00,2.0,11.87,3.0,14.76,12.57,47.59359,-54.27349
2021-10-10 03:44:01+00:00,357.0,11.49,357.0,13.66,12.57,47.59359,-54.27349
2021-10-10 03:54:01+00:00,4.0,11.66,7.0,13.85,12.57,47.59359,-54.27349
2021-10-10 04:04:01+00:00,351.0,13.74,355.0,15.81,12.57,47.59359,-54.27349
2021-10-10 04:14:01+00:00,350.0,12.17,347.0,16.05,12.49,47.59359,-54.27349
2021-10-10 04:24:01+00:00,356.0,14.66,349.0,17.4,12.49,47.59359,-54.27349
2021-10-10 04:34:01+00:00,359.0,14.63,359.0,16.8,12.49,47.59359,-54.27349
2021-10-10 04:44:01+00:00,354.0,11.9,338.0,13.94,12.49,47.59359,-54.27349
2021-10-10 04:54:01+00:00,348.0,13.46,5.0,17.48,12.49,47.59359,-54.27349
2021-10-10 05:04:01+00:00,346.0,11.22,354.0,15.02,12.49,47.59359,-54.27349
2021-10-10 05:14:00+00:00,338.0,12.01,339.0,13.58,12.49,47.59359,-54.27349
2021-10-10 05:24:00+00:00,346.0,12.91,337.0,16.88,12.49,47.59359,-54.27349
2021-10-10 05:34:00+00:00,357.0,10.72,351.0,12.66,12.49,47.59359,-54.27349
2021-10-10 05:44:00+00:00,354.0,9.7,357.0,11.69,12.49,47.59359,-54.27349
2021-10-10 05:54:00+00:00,2.0,10.09,359.0,12.65,12.49,47.59359,-54.27349
2021-10-10 06:04:00+00:00,347.0,11.55,344.0,13.72,12.49,47.59359,-54.27349
2021-10-10 06:14:01+00:00,1.0,13.21,346.0,15.75,12.49,47.59359,-54.27349
2021-10-10 06:24:01+00:00,9.0,12.07,6.0,14.2,12.49,47.59359,-54.27349
2021-10-10 06:34:01+00:00,3.0,11.28,3.0,13.31,12.49,47.59359,-54.27349
2021-10-10 06:44:01+00:00,8.0,9.97,5.0,11.59,12.49,47.59359,-54.27349
2021-10-10 06:54:01+00:00,354.0,11.03,343.0,13.59,12.49,47.59359,-54.27349
2021-10-10 07:04:01+00:00,347.0,13.2,348.0,15.44,12.49,47.59359,-54.27349
2021-10-10 07:14:01+00:00,356.0,10.89,338.0,13.55,12.49,47.59359,-54.27349
2021-10-10 07:24:01+00:00,4.0,12.0,4.0,13.49,12.49,47.59359,-54.27349
2021-10-10 07:34:01+00:00,8.0,10.58,15.0,14.07,12.49,47.59359,-54.27349
2021-10-10 07:44:01+00:00,1.0,10.94,2.0,12.8,12.49,47.59359,-54.27349
2021-10-10 07:54:01+00:00,359.0,11.74,359.0,14.01,12.49,47.59359,-54.27349
2021-10-10 08:04:01+00:00,352.0,12.66,353.0,14.76,12.49,47.59359,-54.27349
2021-10-10 08:14:01+00:00,5.0,10.66,358.0,12.7,12.41,47.59359,-54.27349
2021-10-10 08:24:01+00:00,354.0,10.7,337.0,13.56,12.41,47.59359,-54.27349
2021-10-10 08:34:01+00:00,359.0,11.64,0.0,13.66,12.41,47.59359,-54.27349
2021-10-10 08:44:01+00:00,358.0,10.61,356.0,12.44,12.41,47.59359,-54.27349
2021-10-10 08:54:01+00:00,359.0,12.65,7.0,14.77,12.41,47.59359,-54.27349
2021-10-10 09:04:01+00:00,0.0,13.31,359.0,15.48,12.41,47.59359,-54.27349
2021-10-10 09:14:00+00:00,357.0,13.72,351.0,16.21,12.41,47.59359,-54.27349
2021-10-10 09:24:00+00:00,355.0,13.3,357.0,14.94,12.41,47.59359,-54.27349
2021-10-10 09:34:00+00:00,356.0,11.23,4.0,13.64,12.41,47.59359,-54.27349
2021-10-10 09:44:00+00:00,358.0,13.18,357.0,15.69,12.41,47.59359,-54.27349
2021-10-10 09:54:00+00:00,358.0,15.43,355.0,17.37,12.41,47.59359,-54.27349
2021-10-10 10:04:00+00:00,355.0,14.38,4.0,16.9,12.41,47.59359,-54.27349
2021-10-10 10:14:00+00:00,349.0,12.42,346.0,14.41,12.33,47.59359,-54.27349
2021-10-10 10:24:00+00:00,347.0,12.55,350.0,14.14,12.33,47.59359,-54.27349
2021-10-10 10:34:00+00:00,356.0,12.43,358.0,14.01,12.33,47.59359,-54.27349
2021-10-10 10:44:00+00:00,347.0,11.67,1.0,13.02,12.33,47.59359,-54.27349
2021-10-10 10:54:00+00:00,347.0,11.74,353.0,13.76,12.33,47.59359,-54.27349
2021-10-10 11:04:00+00:00,346.0,10.89,353.0,13.3,12.33,47.59359,-54.27349
2021-10-10 11:14:01+00:00,351.0,11.43,351.0,12.89,12.73,47.59359,-54.27349
2021-10-10 11:24:01+00:00,344.0,11.06,351.0,12.6,12.73,47.59359,-54.27349
2021-10-10 11:34:01+00:00,348.0,12.98,349.0,14.51,12.73,47.59359,-54.27349
2021-10-10 11:44:01+00:00,351.0,11.77,350.0,13.57,12.73,47.59359,-54.27349
2021-10-10 11:54:01+00:00,345.0,12.75,346.0,14.43,12.73,47.59359,-54.27349
2021-10-10 12:04:01+00:00,348.0,12.36,348.0,15.04,12.73,47.59359,-54.27349
2021-10-10 12:14:01+00:00,349.0,10.9,350.0,12.51,13.53,47.59359,-54.27349
2021-10-10 12:24:01+00:00,357.0,13.56,6.0,15.13,13.53,47.59359,-54.27349
2021-10-10 12:34:01+00:00,345.0,11.15,341.0,13.5,13.53,47.59359,-54.27349
2021-10-10 12:44:01+00:00,9.0,13.46,10.0,15.48,13.53,47.59359,-54.27349
2021-10-10 12:54:01+00:00,1.0,13.46,4.0,15.85,13.53,47.59359,-54.27349
2021-10-10 13:04:01+00:00,3.0,12.89,349.0,15.28,13.53,47.59359,-54.27349
2021-10-10 13:14:01+00:00,350.0,13.11,341.0,15.11,13.76,47.59359,-54.27349
2021-10-10 13:24:01+00:00,359.0,10.31,2.0,12.88,13.76,47.59359,-54.27349
2021-10-10 13:34:01+00:00,347.0,11.03,335.0,13.0,13.76,47.59359,-54.27349
2021-10-10 13:44:01+00:00,338.0,11.69,341.0,13.37,13.76,47.59359,-54.27349
2021-10-10 13:54:01+00:00,336.0,11.19,340.0,13.82,13.76,47.59359,-54.27349
2021-10-10 14:04:01+00:00,352.0,11.59,343.0,13.41,13.76,47.59359,-54.27349
2021-10-10 14:14:01+00:00,357.0,11.16,359.0,13.22,13.68,47.59359,-54.27349
2021-10-10 14:24:01+00:00,12.0,8.33,9.0,10.33,13.68,47.59359,-54.27349
2021-10-10 14:34:01+00:00,7.0,10.94,14.0,13.2,13.68,47.59359,-54.27349
2021-10-10 14:44:01+00:00,5.0,9.69,6.0,11.75,13.68,47.59359,-54.27349
2021-10-10 14:54:01+00:00,333.0,11.36,330.0,12.49,13.68,47.59359,-54.27349
2021-10-10 15:04:01+00:00,333.0,11.86,333.0,13.74,13.68,47.59359,-54.27349
2021-10-10 15:14:01+00:00,343.0,10.7,336.0,13.61,14.32,47.59359,-54.27349
2021-10-10 15:24:01+00:00,334.0,11.14,335.0,13.09,14.32,47.59359,-54.27349
2021-10-10 15:34:01+00:00,334.0,11.37,333.0,13.62,14.32,47.59359,-54.27349
2021-10-10 15:44:01+00:00,354.0,10.31,357.0,11.5,14.32,47.59359,-54.27349
2021-10-10 15:54:01+00:00,334.0,13.28,340.0,15.47,14.32,47.59359,-54.27349
2021-10-10 16:04:01+00:00,358.0,9.47,0.0,11.12,14.32,47.59359,-54.27349
2021-10-10 16:14:01+00:00,347.0,10.56,334.0,12.11,13.68,47.59359,-54.27349
2021-10-10 16:24:01+00:00,349.0,7.21,0.0,9.15,13.68,47.59359,-54.27349
2021-10-10 16:34:01+00:00,1.0,11.16,2.0,12.5,13.68,47.59359,-54.27349
2021-10-10 16:44:01+00:00,342.0,10.32,334.0,12.43,13.68,47.59359,-54.27349
2021-10-10 16:54:01+00:00,334.0,7.98,335.0,9.07,13.68,47.59359,-54.27349
2021-10-10 17:04:01+00:00,337.0,8.82,338.0,10.38,13.68,47.59359,-54.27349
2021-10-10 17:14:01+00:00,346.0,8.64,345.0,10.14,13.76,47.59359,-54.27349
2021-10-10 17:24:01+00:00,345.0,9.93,348.0,11.61,13.76,47.59359,-54.27349
2021-10-10 17:34:01+00:00,344.0,10.02,345.0,11.8,13.76,47.59359,-54.27349
2021-10-10 17:44:01+00:00,350.0,9.26,352.0,10.45,13.76,47.59359,-54.27349
2021-10-10 17:54:01+00:00,348.0,9.09,348.0,10.66,13.76,47.59359,-54.27349
2021-10-10 18:04:01+00:00,342.0,10.73,343.0,11.74,13.76,47.59359,-54.27349
2021-10-10 18:14:01+00:00,351.0,9.99,350.0,11.83,14.32,47.59359,-54.27349
2021-10-10 18:24:01+00:00,344.0,8.81,344.0,11.26,14.32,47.59359,-54.27349
2021-10-10 18:34:01+00:00,347.0,9.05,341.0,11.47,14.32,47.59359,-54.27349
2021-10-10 18:44:01+00:00,351.0,11.52,353.0,14.45,14.32,47.59359,-54.27349
2021-10-10 18:54:01+00:00,346.0,10.79,347.0,12.09,14.32,47.59359,-54.27349
2021-10-10 19:04:01+00:00,351.0,11.12,353.0,12.55,14.32,47.59359,-54.27349
2021-10-10 19:14:01+00:00,343.0,10.03,342.0,11.2,13.84,47.59359,-54.27349
2021-10-10 19:24:01+00:00,353.0,9.21,358.0,10.35,13.84,47.59359,-54.27349
2021-10-10 19:34:01+00:00,353.0,11.46,353.0,13.47,13.84,47.59359,-54.27349
2021-10-10 19:44:01+00:00,358.0,9.81,5.0,11.57,13.84,47.59359,-54.27349
2021-10-10 19:54:01+00:00,352.0,9.07,355.0,11.05,13.84,47.59359,-54.27349
2021-10-10 20:04:01+00:00,355.0,10.89,350.0,12.94,13.84,47.59359,-54.27349
2021-10-10 20:14:01+00:00,352.0,9.46,354.0,10.5,13.92,47.59359,-54.27349
2021-10-10 20:24:01+00:00,354.0,8.41,348.0,9.58,13.92,47.59359,-54.27349
2021-10-10 20:34:01+00:00,350.0,9.83,351.0,11.12,13.92,47.59359,-54.27349
2021-10-10 20:44:01+00:00,356.0,8.13,357.0,9.15,13.92,47.59359,-54.27349
2021-10-10 20:54:01+00:00,347.0,7.34,350.0,8.31,13.92,47.59359,-54.27349
2021-10-10 21:04:01+00:00,2.0,7.19,359.0,7.93,13.92,47.59359,-54.27349
2021-10-10 21:14:01+00:00,344.0,5.68,335.0,6.56,13.13,47.59359,-54.27349
2021-10-10 21:24:01+00:00,349.0,5.11,345.0,5.81,13.13,47.59359,-54.27349
2021-10-10 21:34:01+00:00,348.0,5.26,343.0,5.85,13.13,47.59359,-54.27349
2021-10-10 21:44:01+00:00,347.0,5.23,343.0,6.22,13.13,47.59359,-54.27349
2021-10-10 21:54:01+00:00,344.0,4.81,347.0,5.27,13.13,47.59359,-54.27349
2021-10-10 22:04:01+00:00,343.0,4.61,348.0,5.1,13.13,47.59359,-54.27349
2021-10-10 22:14:01+00:00,350.0,3.41,348.0,3.65,12.65,47.59359,-54.27349
2021-10-10 22:24:01+00:00,347.0,4.01,351.0,4.6,12.65,47.59359,-54.27349
2021-10-10 22:34:01+00:00,356.0,3.88,357.0,4.25,12.65,47.59359,-54.27349
2021-10-10 22:44:01+00:00,345.0,4.52,346.0,4.98,12.65,47.59359,-54.27349
2021-10-10 22:54:01+00:00,343.0,4.41,346.0,4.77,12.65,47.59359,-54.27349
2021-10-10 23:04:01+00:00,358.0,4.02,356.0,4.58,12.65,47.59359,-54.27349
2021-10-10 23:14:00+00:00,352.0,3.34,356.0,3.88,12.65,47.59359,-54.27349
2021-10-10 23:24:00+00:00,341.0,2.82,341.0,3.21,12.65,47.59359,-54.27349
2021-10-10 23:34:00+00:00,5.0,2.81,6.0,3.43,12.65,47.59359,-54.27349
2021-10-10 23:44:00+00:00,304.0,2.69,304.0,3.32,12.65,47.59359,-54.27349
2021-10-10 23:54:00+00:00,329.0,3.76,326.0,4.38,12.65,47.59359,-54.27349
